Regional Weather Roundup
Issued by NWS

Home | Current Version | Previous Version | Graphics & Text | Print | Product List | Glossary On
Versions: 1 2 3 4 5 6 7 8 9 10 11 12 13 14 15 16 17 18 19 20 21 22 23 24 25 26 27 28 29 30 31 32 33 34 35 36 37 38 39 40 41 42 43 44 45 46 47 48 49 50
976
ASUS43 KBIS 262310
RWRND

NORTH DAKOTA REGIONAL WEATHER ROUNDUP
NATIONAL WEATHER SERVICE BISMARCK ND
600 PM CDT SUN MAR 26 2017

NOTE: "FAIR" INDICATES FEW OR NO CLOUDS BELOW 12,000 FEET WITH NO
SIGNIFICANT WEATHER AND/OR OBSTRUCTIONS TO VISIBILITY.


NDZ001>003-009>011-017-270000-
NORTHWEST NORTH DAKOTA

CITY           SKY/WX    TMP DP  RH WIND       PRES   REMARKS
WILLISTON      FAIR      62  26  25 W14       29.85R
MINOT          FAIR      58  40  51 E15       29.86S
MINOT AFB      SUNNY     53  43  67 SE14      29.85S
$$

NDZ018>021-031>035-040>046-270000-
SOUTHWEST NORTH DAKOTA

CITY           SKY/WX    TMP DP  RH WIND       PRES   REMARKS
BISMARCK       FAIR      61  36  39 E8        29.90R
DICKINSON      CLOUDY    57  27  31 SW9       29.85S
GARRISON         N/A     60  32  34 S5        29.86F
HETTINGER ARPT PTSUNNY   57  31  37 CALM      29.89F
$$

NDZ004>008-012>016-024-026-027-054-270000-
NORTHEAST NORTH DAKOTA

CITY           SKY/WX    TMP DP  RH WIND       PRES   REMARKS
GRAND FORKS    MOSUNNY   46  41  82 S3        29.93F
GRND FRKS AFB  PTSUNNY   46  43  87 SE3       29.94R
DEVILS LAKE    FAIR      51  41  68 N5        29.92R
$$

NDZ022-023-025-028>030-036>039-047>053-270000-
SOUTHEAST NORTH DAKOTA

CITY           SKY/WX    TMP DP  RH WIND       PRES   REMARKS
FARGO          PTSUNNY   46  38  73 NW6       29.94S
JAMESTOWN      FAIR      51  40  65 CALM      29.91S
$$





USA.gov is the U.S. government's official web portal to all federal, state and local government web resources and services.